sat.trackr.live / text

‹ back to catalog

STARLINK-35072

NORAD 65505 · 2025-198P

PAYLOAD ACTIVE UNKNOWN

§ Identity

Operator
Country
US
Launch date
2025-09-05
Launch site
AFETR
Launch vehicle
Mass (kg)
RCS (m²)

Purposes: comms

External: N2YO · Heavens-Above · Gunter

§ Orbital elements

Epoch: 2026-09-20T21:55:08.838336Z

Period
93.85 min
Inclination
53.1605°
Eccentricity
0.0001893
Mean motion
15.34407838 rev/d
Perigee alt
461.4 km
Apogee alt
464.0 km
Semi-major
6,840.8 km
B*
5.1447e-4
RAAN
79.6667°
Arg perigee
67.5651°
Mean anomaly
292.5552°
Rev number
5,857

§ Raw data

STARLINK-350721 65505U 25198P   26263.91329674  .00017050  00000+0  51447-3 0  99922 65505  53.1605  79.6667 0001893  67.5651 292.5552 15.34407838 58573

JSON: /api/v1/satellites/65505 · /tle

For live sub-satellite position, see the globe view (requires WebGL).

§ Visibility from observer

Set your observer location to see the next 7 days of passes ≥ 10°. The values pass through the URL so the page stays shareable.

No JS? Fill the form by hand. The geolocation button needs JavaScript.